Time,TemperatureF,DewpointF,PressureIn,WindDirection,WindDirectionDegrees,WindSpeedMPH,WindSpeedGustMPH,Humidity,HourlyPrecipIn,Conditions,Clouds,dailyrainin,SoftwareType,DateUTC
2013-03-07 00:00:00,54.5,49.9,29.56,ENE,59,0.0,0.0,84,0.00,,,0.31,VWS V12.07,2013-03-06 23:00:00,
2013-03-07 00:05:00,54.3,49.8,29.56,ENE,59,0.0,0.0,84,0.00,,,0.00,VWS V12.07,2013-03-06 23:05:00,
2013-03-07 00:15:00,54.0,49.4,29.56,ENE,59,0.0,0.0,84,0.00,,,0.00,VWS V12.07,2013-03-06 23:15:00,
2013-03-07 00:20:00,53.6,49.0,29.56,ENE,59,0.0,0.0,84,0.00,,,0.00,VWS V12.07,2013-03-06 23:20:00,
2013-03-07 00:25:00,53.4,49.3,29.56,ENE,59,0.0,0.0,86,0.00,,,0.00,VWS V12.07,2013-03-06 23:25:00,
2013-03-07 00:30:00,53.2,49.1,29.56,ENE,59,0.0,0.0,86,0.00,,,0.00,VWS V12.07,2013-03-06 23:30:00,
2013-03-07 00:35:00,53.1,48.9,29.56,NE,45,0.0,0.0,86,0.00,,,0.00,VWS V12.07,2013-03-06 23:35:00,
2013-03-07 00:40:00,52.9,49.2,29.56,NE,37,0.0,0.0,87,0.00,,,0.00,VWS V12.07,2013-03-06 23:40:00,
2013-03-07 00:45:00,52.9,49.2,29.56,NE,37,0.0,0.0,87,0.00,,,0.00,VWS V12.07,2013-03-06 23:45:00,
2013-03-07 00:50:00,52.7,49.0,29.56,NE,37,0.0,0.0,87,0.00,,,0.00,VWS V12.07,2013-03-06 23:50:00,
2013-03-07 00:55:00,52.7,49.0,29.56,NE,37,0.0,0.0,87,0.00,,,0.00,VWS V12.07,2013-03-06 23:55:00,
2013-03-07 01:00:00,52.5,48.8,29.56,NNE,33,0.0,2.2,87,0.00,,,0.00,VWS V12.07,2013-03-07 00:00:00,
2013-03-07 01:05:00,52.3,48.6,29.56,NNE,33,0.0,0.0,87,0.00,,,0.00,VWS V12.07,2013-03-07 00:05:00,
2013-03-07 01:10:00,52.2,48.5,29.56,NNE,33,0.0,0.0,87,0.00,,,0.00,VWS V12.07,2013-03-07 00:10:00,
2013-03-07 01:15:00,52.2,48.5,29.56,NNE,33,0.0,0.0,87,0.00,,,0.00,VWS V12.07,2013-03-07 00:15:00,
2013-03-07 01:20:00,51.8,48.5,29.56,NNE,33,0.0,0.0,88,0.00,,,0.00,VWS V12.07,2013-03-07 00:20:00,
2013-03-07 01:25:00,51.8,48.5,29.56,NNE,33,0.0,0.0,88,0.00,,,0.00,VWS V12.07,2013-03-07 00:25:00,
2013-03-07 01:30:00,51.8,48.9,29.56,North,7,0.0,2.7,90,0.00,,,0.00,VWS V12.07,2013-03-07 00:30:00,
2013-03-07 01:35:00,51.8,49.3,29.56,North,7,0.0,2.7,91,0.00,,,0.00,VWS V12.07,2013-03-07 00:35:00,
2013-03-07 01:40:00,51.8,49.3,29.56,North,7,0.0,2.7,91,0.00,,,0.00,VWS V12.07,2013-03-07 00:40:00,
2013-03-07 01:45:00,51.8,49.6,29.56,North,7,0.0,0.0,92,0.00,,,0.00,VWS V12.07,2013-03-07 00:45:00,
2013-03-07 01:50:00,51.8,49.6,29.56,North,6,0.0,3.1,92,0.00,,,0.00,VWS V12.07,2013-03-07 00:50:00,
2013-03-07 01:55:00,51.8,50.0,29.56,North,6,0.0,0.0,94,0.00,,,0.00,VWS V12.07,2013-03-07 00:55:00,
2013-03-07 02:00:00,51.8,50.0,29.56,North,6,0.0,0.0,94,0.00,,,0.00,VWS V12.07,2013-03-07 01:00:00,
2013-03-07 02:05:00,51.8,50.0,29.56,North,6,0.0,0.0,94,0.00,,,0.00,VWS V12.07,2013-03-07 01:05:00,
2013-03-07 02:10:00,51.6,50.2,29.56,North,6,0.0,0.0,95,0.00,,,0.00,VWS V12.07,2013-03-07 01:10:00,
2013-03-07 02:15:00,51.6,50.2,29.56,North,6,0.0,0.0,95,0.00,,,0.00,VWS V12.07,2013-03-07 01:15:00,
2013-03-07 02:20:00,51.4,50.0,29.56,North,6,0.0,0.0,95,0.00,,,0.00,VWS V12.07,2013-03-07 01:20:00,
2013-03-07 02:25:00,51.4,50.0,29.56,North,6,0.0,0.0,95,0.00,,,0.00,VWS V12.07,2013-03-07 01:25:00,
2013-03-07 02:30:00,51.3,49.8,29.56,North,6,0.0,0.0,95,0.00,,,0.00,VWS V12.07,2013-03-07 01:30:00,
2013-03-07 02:35:00,51.3,50.2,29.56,North,6,0.0,0.0,96,0.00,,,0.00,VWS V12.07,2013-03-07 01:35:00,
2013-03-07 02:40:00,51.1,50.0,29.56,North,0,2.7,3.1,96,0.00,,,0.00,VWS V12.07,2013-03-07 01:40:00,
2013-03-07 02:45:00,51.1,50.4,29.56,North,357,0.0,3.1,98,0.00,,,0.00,VWS V12.07,2013-03-07 01:45:00,
2013-03-07 02:50:00,50.9,50.2,29.56,North,357,0.0,3.1,98,0.00,,,0.00,VWS V12.07,2013-03-07 01:50:00,
2013-03-07 02:55:00,50.9,50.2,29.56,North,350,0.0,2.7,98,0.00,,,0.00,VWS V12.07,2013-03-07 01:55:00,
2013-03-07 03:00:00,50.9,50.6,29.56,North,350,0.0,2.7,99,0.00,,,0.00,VWS V12.07,2013-03-07 02:00:00,
2013-03-07 03:05:00,51.1,50.8,29.56,North,350,0.0,0.0,99,0.00,,,0.00,VWS V12.07,2013-03-07 02:05:00,
2013-03-07 03:10:00,51.1,51.1,29.56,North,350,0.0,0.0,100,0.00,,,0.00,VWS V12.07,2013-03-07 02:10:00,
2013-03-07 03:15:00,51.1,51.1,29.56,North,350,0.0,0.0,100,0.00,,,0.00,VWS V12.07,2013-03-07 02:15:00,
2013-03-07 03:20:00,50.7,50.4,29.56,North,0,0.0,3.1,99,0.00,,,0.00,VWS V12.07,2013-03-07 02:20:00,
2013-03-07 03:25:00,50.7,50.7,29.56,North,0,0.0,0.0,100,0.00,,,0.00,VWS V12.07,2013-03-07 02:25:00,
2013-03-07 03:30:00,50.7,50.7,29.56,North,0,0.0,0.0,100,0.00,,,0.00,VWS V12.07,2013-03-07 02:30:00,
2013-03-07 03:35:00,50.7,50.7,29.56,North,0,0.0,0.0,100,0.00,,,0.00,VWS V12.07,2013-03-07 02:35:00,
2013-03-07 03:40:00,50.7,50.7,29.56,North,357,2.2,2.2,100,0.00,,,0.00,VWS V12.07,2013-03-07 02:40:00,
2013-03-07 03:45:00,50.7,50.7,29.56,North,357,0.0,2.2,100,0.00,,,0.00,VWS V12.07,2013-03-07 02:45:00,
2013-03-07 03:50:00,51.1,51.1,29.59,North,357,2.2,3.1,100,0.00,,,0.00,VWS V12.07,2013-03-07 02:50:00,
2013-03-07 03:55:00,51.1,51.1,29.59,North,357,0.0,2.2,100,0.00,,,0.00,VWS V12.07,2013-03-07 02:55:00,
2013-03-07 04:00:00,51.3,51.3,29.59,North,353,0.0,2.2,100,0.00,,,0.00,VWS V12.07,2013-03-07 03:00:00,
2013-03-07 04:05:00,51.4,51.4,29.59,North,353,2.2,2.2,100,0.00,,,0.00,VWS V12.07,2013-03-07 03:05:00,
2013-03-07 04:10:00,51.6,51.6,29.59,North,353,3.6,4.0,100,0.00,,,0.00,VWS V12.07,2013-03-07 03:10:00,
2013-03-07 04:15:00,51.6,51.6,29.59,NW,324,2.7,4.0,100,0.00,,,0.00,VWS V12.07,2013-03-07 03:15:00,
2013-03-07 04:20:00,51.4,51.4,29.59,North,353,4.0,4.0,100,0.00,,,0.00,VWS V12.07,2013-03-07 03:20:00,
2013-03-07 04:25:00,51.4,51.4,29.59,NNW,333,2.2,4.0,100,0.00,,,0.00,VWS V12.07,2013-03-07 03:25:00,
2013-03-07 04:30:00,51.1,51.1,29.59,North,353,3.1,4.9,100,0.00,,,0.00,VWS V12.07,2013-03-07 03:30:00,
2013-03-07 04:35:00,51.1,51.1,29.59,North,3,2.2,4.9,100,0.00,,,0.00,VWS V12.07,2013-03-07 03:35:00,
2013-03-07 04:40:00,51.1,51.1,29.59,North,353,3.1,4.9,100,0.00,,,0.00,VWS V12.07,2013-03-07 03:40:00,
2013-03-07 04:45:00,51.1,51.1,29.59,North,353,2.7,4.9,100,0.00,,,0.00,VWS V12.07,2013-03-07 03:45:00,
2013-03-07 04:50:00,51.3,51.3,29.59,North,357,0.0,4.0,100,0.00,,,0.00,VWS V12.07,2013-03-07 03:50:00,
2013-03-07 04:55:00,51.4,51.4,29.59,North,357,0.0,0.0,100,0.00,,,0.00,VWS V12.07,2013-03-07 03:55:00,
2013-03-07 05:00:00,51.6,51.6,29.59,North,357,0.0,2.2,100,0.00,,,0.00,VWS V12.07,2013-03-07 04:00:00,
2013-03-07 05:05:00,51.6,51.6,29.59,North,357,0.0,2.7,100,0.00,,,0.00,VWS V12.07,2013-03-07 04:05:00,
2013-03-07 05:10:00,51.8,51.8,29.59,North,357,0.0,2.7,100,0.00,,,0.00,VWS V12.07,2013-03-07 04:10:00,
2013-03-07 05:15:00,52.0,52.0,29.59,North,357,0.0,0.0,100,0.00,,,0.00,VWS V12.07,2013-03-07 04:15:00,
2013-03-07 05:20:00,52.0,52.0,29.59,North,357,0.0,0.0,100,0.00,,,0.00,VWS V12.07,2013-03-07 04:20:00,
2013-03-07 05:25:00,52.2,52.2,29.59,North,357,0.0,0.0,100,0.00,,,0.00,VWS V12.07,2013-03-07 04:25:00,
2013-03-07 05:30:00,52.2,52.2,29.59,North,357,0.0,0.0,100,0.00,,,0.00,VWS V12.07,2013-03-07 04:30:00,
2013-03-07 05:35:00,52.2,52.2,29.59,North,357,0.0,0.0,100,0.00,,,0.00,VWS V12.07,2013-03-07 04:35:00,
2013-03-07 05:40:00,52.3,52.3,29.59,West,264,0.0,2.2,100,0.00,,,0.00,VWS V12.07,2013-03-07 04:40:00,
2013-03-07 05:45:00,52.3,52.3,29.59,West,268,0.0,0.0,100,0.00,,,0.00,VWS V12.07,2013-03-07 04:45:00,
2013-03-07 05:50:00,52.5,52.5,29.59,NW,307,0.0,0.0,100,0.00,,,0.00,VWS V12.07,2013-03-07 04:50:00,
2013-03-07 05:55:00,52.7,52.7,29.59,NW,311,0.0,0.0,100,0.00,,,0.00,VWS V12.07,2013-03-07 04:55:00,
2013-03-07 06:00:00,52.7,52.7,29.59,NW,311,0.0,0.0,100,0.00,,,0.00,VWS V12.07,2013-03-07 05:00:00,
2013-03-07 06:05:00,52.7,52.7,29.59,NW,311,0.0,0.0,100,0.00,,,0.00,VWS V12.07,2013-03-07 05:05:00,
2013-03-07 06:10:00,52.9,52.9,29.62,NW,316,0.0,0.0,100,0.00,,,0.00,VWS V12.07,2013-03-07 05:10:00,
2013-03-07 06:15:00,52.9,52.9,29.62,NNW,333,0.0,0.0,100,0.00,,,0.00,VWS V12.07,2013-03-07 05:15:00,
2013-03-07 06:20:00,52.9,52.9,29.62,NNW,333,0.0,0.0,100,0.00,,,0.00,VWS V12.07,2013-03-07 05:20:00,
2013-03-07 06:25:00,53.1,53.1,29.62,NNW,333,0.0,0.0,100,0.00,,,0.00,VWS V12.07,2013-03-07 05:25:00,
2013-03-07 06:30:00,53.1,53.1,29.62,NNW,333,0.0,0.0,100,0.00,,,0.00,VWS V12.07,2013-03-07 05:30:00,
2013-03-07 06:35:00,53.1,53.1,29.62,NNW,333,0.0,0.0,100,0.00,,,0.00,VWS V12.07,2013-03-07 05:35:00,
2013-03-07 06:45:00,53.1,53.1,29.62,NNW,333,0.0,0.0,100,0.00,,,0.00,VWS V12.07,2013-03-07 05:45:00,
2013-03-07 06:50:00,53.2,53.2,29.62,NE,37,0.0,0.0,100,0.00,,,0.00,VWS V12.07,2013-03-07 05:50:00,
2013-03-07 06:55:00,53.2,53.2,29.62,NE,37,0.0,0.0,100,0.00,,,0.00,VWS V12.07,2013-03-07 05:55:00,
2013-03-07 07:00:00,53.4,53.4,29.62,NE,49,0.0,0.0,100,0.00,,,0.00,VWS V12.07,2013-03-07 06:00:00,
2013-03-07 07:05:00,53.4,53.4,29.62,NE,49,0.0,0.0,100,0.00,,,0.00,VWS V12.07,2013-03-07 06:05:00,
2013-03-07 07:10:00,53.4,53.4,29.62,SW,226,0.0,0.0,100,0.00,,,0.00,VWS V12.07,2013-03-07 06:10:00,
2013-03-07 07:15:00,53.4,53.4,29.62,SW,226,0.0,0.0,100,0.00,,,0.00,VWS V12.07,2013-03-07 06:15:00,
2013-03-07 07:25:00,53.4,53.4,29.62,WSW,258,0.0,2.2,100,0.00,,,0.00,VWS V12.07,2013-03-07 06:25:00,
2013-03-07 07:30:00,53.4,53.4,29.62,WSW,258,0.0,2.2,100,0.00,,,0.00,VWS V12.07,2013-03-07 06:30:00,
2013-03-07 07:35:00,53.4,53.4,29.62,NW,305,0.0,0.0,100,0.00,,,0.00,VWS V12.07,2013-03-07 06:35:00,
2013-03-07 07:45:00,53.6,53.6,29.62,North,357,0.0,0.0,100,0.00,,,0.00,VWS V12.07,2013-03-07 06:45:00,
2013-03-07 07:50:00,53.6,51.1,29.62,North,357,0.0,0.0,91,0.00,,,0.00,VWS V12.07,2013-03-07 06:50:00,
2013-03-07 07:55:00,53.6,51.1,29.62,NNE,13,2.7,2.7,91,0.00,,,0.00,VWS V12.07,2013-03-07 06:55:00,
2013-03-07 08:00:00,53.6,51.1,29.65,East,87,0.0,2.7,91,0.00,,,0.00,VWS V12.07,2013-03-07 07:00:00,
2013-03-07 08:05:00,53.6,51.1,29.65,NE,36,2.2,2.2,91,0.00,,,0.00,VWS V12.07,2013-03-07 07:05:00,
2013-03-07 08:10:00,53.6,51.1,29.65,ENE,71,3.1,3.1,91,0.00,,,0.00,VWS V12.07,2013-03-07 07:10:00,
2013-03-07 08:15:00,53.6,51.1,29.65,NE,34,0.0,3.1,91,0.00,,,0.00,VWS V12.07,2013-03-07 07:15:00,
2013-03-07 08:20:00,53.6,51.5,29.65,NNE,12,2.2,3.6,92,0.00,,,0.00,VWS V12.07,2013-03-07 07:20:00,
2013-03-07 08:25:00,53.6,51.5,29.65,NNE,12,2.2,3.6,92,0.00,,,0.00,VWS V12.07,2013-03-07 07:25:00,
2013-03-07 08:30:00,53.8,51.6,29.65,ESE,109,2.7,2.7,92,0.00,,,0.00,VWS V12.07,2013-03-07 07:30:00,
2013-03-07 08:40:00,54.0,51.8,29.65,East,99,2.7,2.7,92,0.00,,,0.00,VWS V12.07,2013-03-07 07:40:00,
2013-03-07 08:45:00,54.0,51.8,29.65,East,91,0.0,4.0,92,0.00,,,0.00,VWS V12.07,2013-03-07 07:45:00,
2013-03-07 08:55:00,54.1,52.0,29.68,ENE,68,2.7,3.1,92,0.00,,,0.00,VWS V12.07,2013-03-07 07:55:00,
2013-03-07 09:00:00,54.1,52.0,29.68,East,91,3.6,3.6,92,0.00,,,0.00,VWS V12.07,2013-03-07 08:00:00,
2013-03-07 09:05:00,54.3,52.2,29.68,NE,54,2.2,3.6,92,0.00,,,0.00,VWS V12.07,2013-03-07 08:05:00,
2013-03-07 09:15:00,54.3,52.2,29.68,North,11,2.2,3.6,92,0.00,,,0.00,VWS V12.07,2013-03-07 08:15:00,
2013-03-07 09:20:00,54.3,52.2,29.68,ENE,72,2.2,4.0,92,0.00,,,0.00,VWS V12.07,2013-03-07 08:20:00,
2013-03-07 09:25:00,54.3,52.2,29.68,ENE,72,2.2,4.0,92,0.00,,,0.00,VWS V12.07,2013-03-07 08:25:00,
2013-03-07 09:30:00,54.3,52.2,29.68,East,79,4.9,4.9,92,0.00,,,0.00,VWS V12.07,2013-03-07 08:30:00,
2013-03-07 09:35:00,54.3,52.2,29.68,East,94,4.0,4.9,92,0.00,,,0.00,VWS V12.07,2013-03-07 08:35:00,
2013-03-07 09:40:00,54.5,52.3,29.68,East,90,3.1,4.9,92,0.00,,,0.00,VWS V12.07,2013-03-07 08:40:00,
2013-03-07 09:50:00,54.5,52.3,29.68,ENE,71,4.0,4.0,92,0.00,,,0.00,VWS V12.07,2013-03-07 08:50:00,
2013-03-07 09:55:00,54.5,52.3,29.68,NE,50,2.2,4.0,92,0.00,,,0.00,VWS V12.07,2013-03-07 08:55:00,
2013-03-07 10:00:00,54.5,52.3,29.68,NNE,14,0.0,4.0,92,0.00,,,0.00,VWS V12.07,2013-03-07 09:00:00,
2013-03-07 10:05:00,54.7,52.5,29.68,North,2,3.1,4.0,92,0.00,,,0.00,VWS V12.07,2013-03-07 09:05:00,
2013-03-07 10:15:00,54.7,52.5,29.68,NE,50,2.7,4.5,92,0.00,,,0.00,VWS V12.07,2013-03-07 09:15:00,
2013-03-07 10:20:00,54.7,52.5,29.68,East,83,2.2,4.5,92,0.00,,,0.00,VWS V12.07,2013-03-07 09:20:00,
2013-03-07 10:25:00,54.7,52.5,29.68,East,83,2.2,4.5,92,0.00,,,0.00,VWS V12.07,2013-03-07 09:25:00,
2013-03-07 10:35:00,54.7,52.2,29.68,NNE,25,4.9,5.8,91,0.00,,,0.00,VWS V12.07,2013-03-07 09:35:00,
2013-03-07 10:45:00,55.0,52.2,29.68,East,100,4.0,5.8,90,0.00,,,0.00,VWS V12.07,2013-03-07 09:45:00,
2013-03-07 10:50:00,55.0,51.9,29.71,ESE,114,5.4,5.4,89,0.00,,,0.00,VWS V12.07,2013-03-07 09:50:00,
2013-03-07 11:00:00,55.0,51.9,29.71,NE,49,2.7,6.3,89,0.00,,,0.00,VWS V12.07,2013-03-07 10:00:00,
2013-03-07 11:05:00,55.2,51.7,29.71,ESE,109,6.3,6.3,88,0.00,,,0.00,VWS V12.07,2013-03-07 10:05:00,
2013-03-07 11:10:00,55.2,51.7,29.71,SE,128,3.1,6.3,88,0.00,,,0.00,VWS V12.07,2013-03-07 10:10:00,
2013-03-07 11:15:00,55.2,51.4,29.71,SSE,166,3.1,5.4,87,0.00,,,0.00,VWS V12.07,2013-03-07 10:15:00,
2013-03-07 11:25:00,55.2,51.0,29.71,SSE,155,4.9,4.9,86,0.00,,,0.00,VWS V12.07,2013-03-07 10:25:00,
2013-03-07 11:30:00,55.2,51.0,29.71,ENE,70,4.9,5.8,86,0.00,,,0.00,VWS V12.07,2013-03-07 10:30:00,
2013-03-07 11:35:00,55.2,51.0,29.71,ESE,106,5.8,5.8,86,0.00,,,0.00,VWS V12.07,2013-03-07 10:35:00,
2013-03-07 11:40:00,55.4,50.2,29.71,East,92,3.6,5.8,82,0.00,,,0.00,VWS V12.07,2013-03-07 10:40:00,
2013-03-07 11:45:00,55.4,50.2,29.71,East,92,3.6,5.8,82,0.00,,,0.00,VWS V12.07,2013-03-07 10:45:00,
2013-03-07 11:50:00,55.4,50.2,29.71,East,101,2.7,5.4,82,0.00,,,0.00,VWS V12.07,2013-03-07 10:50:00,
2013-03-07 11:55:00,55.9,51.0,29.71,ESE,122,3.1,3.1,84,0.00,,,0.00,VWS V12.07,2013-03-07 10:55:00,
2013-03-07 12:00:00,55.9,50.7,29.71,East,81,3.1,3.6,82,0.00,,,0.00,VWS V12.07,2013-03-07 11:00:00,
2013-03-07 12:05:00,55.9,50.7,29.71,East,92,4.0,4.0,82,0.00,,,0.00,VWS V12.07,2013-03-07 11:05:00,
2013-03-07 12:10:00,55.9,50.7,29.71,NE,44,2.7,4.0,82,0.00,,,0.00,VWS V12.07,2013-03-07 11:10:00,
2013-03-07 12:15:00,55.9,50.7,29.71,ENE,75,3.1,4.0,82,0.00,,,0.00,VWS V12.07,2013-03-07 11:15:00,
2013-03-07 12:20:00,55.9,50.7,29.71,ENE,76,4.0,4.0,82,0.00,,,0.00,VWS V12.07,2013-03-07 11:20:00,
2013-03-07 12:30:00,57.0,51.4,29.71,East,90,3.1,4.0,81,0.00,,,0.00,VWS V12.07,2013-03-07 11:30:00,
2013-03-07 12:35:00,57.2,51.6,29.71,East,92,0.0,4.9,81,0.00,,,0.00,VWS V12.07,2013-03-07 11:35:00,
2013-03-07 12:45:00,57.0,50.7,29.71,ESE,109,4.0,6.3,79,0.00,,,0.00,VWS V12.07,2013-03-07 11:45:00,
2013-03-07 12:50:00,56.8,49.3,29.71,ESE,123,4.9,6.7,76,0.00,,,0.00,VWS V12.07,2013-03-07 11:50:00,
2013-03-07 12:55:00,56.8,49.3,29.71,ESE,123,4.9,6.7,76,0.00,,,0.00,VWS V12.07,2013-03-07 11:55:00,
2013-03-07 13:00:00,56.3,47.2,29.71,South,169,8.3,8.3,72,0.00,,,0.00,VWS V12.07,2013-03-07 12:00:00,
2013-03-07 13:05:00,56.3,47.2,29.71,South,183,5.4,8.3,72,0.00,,,0.00,VWS V12.07,2013-03-07 12:05:00,
2013-03-07 13:15:00,56.7,49.2,29.71,SSW,195,3.6,8.3,76,0.00,,,0.00,VWS V12.07,2013-03-07 12:15:00,
2013-03-07 13:20:00,56.7,48.4,29.71,SSW,193,5.8,8.7,74,0.00,,,0.00,VWS V12.07,2013-03-07 12:20:00,
2013-03-07 13:25:00,56.5,47.8,29.71,SSE,164,5.8,9.6,73,0.00,,,0.00,VWS V12.07,2013-03-07 12:25:00,
2013-03-07 13:30:00,56.5,47.8,29.71,SSW,207,3.6,9.6,73,0.00,,,0.00,VWS V12.07,2013-03-07 12:30:00,
2013-03-07 13:35:00,56.5,47.8,29.71,SSW,207,3.6,9.6,73,0.00,,,0.00,VWS V12.07,2013-03-07 12:35:00,
2013-03-07 13:40:00,57.2,48.1,29.71,SSE,158,8.1,8.7,72,0.00,,,0.00,VWS V12.07,2013-03-07 12:40:00,
2013-03-07 13:45:00,57.2,48.1,29.71,South,186,7.6,8.3,72,0.00,,,0.00,VWS V12.07,2013-03-07 12:45:00,
2013-03-07 13:50:00,57.2,46.8,29.71,SSE,150,9.2,9.2,68,0.00,,,0.00,VWS V12.07,2013-03-07 12:50:00,
2013-03-07 13:55:00,57.2,46.8,29.71,SSE,150,9.2,9.2,68,0.00,,,0.00,VWS V12.07,2013-03-07 12:55:00,
2013-03-07 14:00:00,57.6,45.9,29.71,South,174,7.6,9.2,65,0.00,,,0.00,VWS V12.07,2013-03-07 13:00:00,
2013-03-07 14:05:00,57.6,45.9,29.71,South,174,7.6,9.2,65,0.00,,,0.00,VWS V12.07,2013-03-07 13:05:00,
2013-03-07 14:15:00,57.0,45.3,29.71,South,170,8.3,8.3,65,0.00,,,0.00,VWS V12.07,2013-03-07 13:15:00,
2013-03-07 14:20:00,56.8,46.9,29.68,South,169,6.3,8.3,69,0.00,,,0.00,VWS V12.07,2013-03-07 13:20:00,
2013-03-07 14:25:00,56.8,46.9,29.68,SSE,155,5.4,8.1,69,0.00,,,0.00,VWS V12.07,2013-03-07 13:25:00,
2013-03-07 14:30:00,57.0,48.3,29.68,SSE,151,6.3,8.1,73,0.00,,,0.00,VWS V12.07,2013-03-07 13:30:00,
2013-03-07 14:35:00,57.0,48.3,29.68,SSE,147,3.6,6.3,73,0.00,,,0.00,VWS V12.07,2013-03-07 13:35:00,
2013-03-07 14:45:00,57.4,48.2,29.68,South,174,5.4,5.8,72,0.00,,,0.00,VWS V12.07,2013-03-07 13:45:00,
2013-03-07 14:50:00,57.6,49.2,29.68,South,177,5.4,5.8,74,0.00,,,0.00,VWS V12.07,2013-03-07 13:50:00,
2013-03-07 14:55:00,57.6,49.2,29.68,SSW,212,5.4,6.3,74,0.00,,,0.00,VWS V12.07,2013-03-07 13:55:00,
2013-03-07 15:00:00,57.9,48.8,29.68,South,175,3.6,6.3,72,0.00,,,0.00,VWS V12.07,2013-03-07 14:00:00,
2013-03-07 15:10:00,57.4,46.6,29.68,SSE,153,4.0,8.1,67,0.00,,,0.00,VWS V12.07,2013-03-07 14:10:00,
2013-03-07 15:15:00,57.6,48.4,29.68,South,176,8.1,8.1,72,0.00,,,0.00,VWS V12.07,2013-03-07 14:15:00,
2013-03-07 15:20:00,57.6,48.4,29.68,South,173,2.7,8.1,72,0.00,,,0.00,VWS V12.07,2013-03-07 14:20:00,
2013-03-07 15:25:00,57.6,48.4,29.68,SW,221,2.2,2.7,72,0.00,,,0.00,VWS V12.07,2013-03-07 14:25:00,
2013-03-07 15:30:00,57.6,43.5,29.68,South,172,6.3,6.3,59,0.00,,,0.00,VWS V12.07,2013-03-07 14:30:00,
2013-03-07 15:40:00,57.6,43.0,29.65,South,179,5.4,6.3,58,0.00,,,0.00,VWS V12.07,2013-03-07 14:40:00,
2013-03-07 15:45:00,57.7,44.2,29.65,SSE,147,7.6,7.6,60,0.00,,,0.00,VWS V12.07,2013-03-07 14:45:00,
2013-03-07 15:50:00,57.9,43.9,29.65,ESE,109,3.6,7.6,59,0.00,,,0.00,VWS V12.07,2013-03-07 14:50:00,
2013-03-07 15:55:00,57.9,44.8,29.65,ESE,109,3.1,3.6,62,0.00,,,0.00,VWS V12.07,2013-03-07 14:55:00,
2013-03-07 16:05:00,57.6,45.0,29.65,SSE,149,6.3,6.3,63,0.00,,,0.00,VWS V12.07,2013-03-07 15:05:00,
2013-03-07 16:10:00,57.6,45.0,29.65,SSE,151,5.4,6.3,63,0.00,,,0.00,VWS V12.07,2013-03-07 15:10:00,
2013-03-07 16:15:00,57.6,45.0,29.65,SSE,151,5.4,6.3,63,0.00,,,0.00,VWS V12.07,2013-03-07 15:15:00,
2013-03-07 16:20:00,57.4,47.4,29.65,SSE,159,3.6,7.6,69,0.00,,,0.00,VWS V12.07,2013-03-07 15:20:00,
2013-03-07 16:25:00,57.4,47.4,29.65,SSE,159,3.6,7.6,69,0.00,,,0.00,VWS V12.07,2013-03-07 15:25:00,
2013-03-07 16:35:00,57.2,48.9,29.65,SE,139,7.6,8.1,74,0.00,,,0.00,VWS V12.07,2013-03-07 15:35:00,
2013-03-07 16:40:00,57.0,49.5,29.65,SSE,166,5.8,8.1,76,0.00,,,0.00,VWS V12.07,2013-03-07 15:40:00,
2013-03-07 16:50:00,57.2,50.8,29.65,South,169,5.8,7.6,79,0.00,,,0.00,VWS V12.07,2013-03-07 15:50:00,
2013-03-07 16:55:00,57.2,50.8,29.65,South,179,3.6,8.1,79,0.00,,,0.00,VWS V12.07,2013-03-07 15:55:00,
2013-03-07 17:05:00,56.8,50.8,29.62,ESE,103,3.1,3.1,80,0.00,,,0.00,VWS V12.07,2013-03-07 16:05:00,
2013-03-07 17:15:00,56.7,51.0,29.62,South,186,4.0,4.5,81,0.00,,,0.00,VWS V12.07,2013-03-07 16:15:00,
2013-03-07 17:20:00,56.8,51.6,29.62,SSE,152,4.0,6.3,82,0.00,,,0.00,VWS V12.07,2013-03-07 16:20:00,
2013-03-07 17:25:00,56.8,51.6,29.62,SSE,152,4.0,6.3,82,0.00,,,0.00,VWS V12.07,2013-03-07 16:25:00,
2013-03-07 17:30:00,57.0,52.8,29.62,SSE,156,6.3,6.3,86,0.00,,,0.00,VWS V12.07,2013-03-07 16:30:00,
2013-03-07 17:40:00,56.8,52.3,29.62,South,173,2.7,6.3,85,0.00,,,0.00,VWS V12.07,2013-03-07 16:40:00,
2013-03-07 17:45:00,57.0,53.2,29.62,South,176,5.8,5.8,87,0.00,,,0.00,VWS V12.07,2013-03-07 16:45:00,
2013-03-07 17:55:00,57.0,53.2,29.62,ESE,107,5.8,6.7,87,0.00,,,0.00,VWS V12.07,2013-03-07 16:55:00,
2013-03-07 18:05:00,57.0,52.5,29.62,South,178,6.3,8.3,85,0.00,,,0.00,VWS V12.07,2013-03-07 17:05:00,
2013-03-07 18:10:00,56.8,53.0,29.62,SSW,194,9.2,9.2,87,0.00,,,0.00,VWS V12.07,2013-03-07 17:10:00,
2013-03-07 18:15:00,56.8,53.3,29.62,SSW,213,11.0,11.0,88,0.00,,,0.00,VWS V12.07,2013-03-07 17:15:00,
2013-03-07 18:25:00,56.7,52.5,29.62,South,191,8.3,11.0,86,0.00,,,0.00,VWS V12.07,2013-03-07 17:25:00,
2013-03-07 18:35:00,56.7,51.8,29.62,East,89,3.6,8.1,84,0.00,,,0.00,VWS V12.07,2013-03-07 17:35:00,
2013-03-07 18:40:00,56.7,51.8,29.62,SSE,153,5.8,8.1,84,0.00,,,0.00,VWS V12.07,2013-03-07 17:40:00,
2013-03-07 18:50:00,56.8,50.8,29.62,South,181,8.3,8.3,80,0.00,,,0.00,VWS V12.07,2013-03-07 17:50:00,
2013-03-07 18:55:00,56.8,50.8,29.62,South,181,8.3,8.3,80,0.00,,,0.00,VWS V12.07,2013-03-07 17:55:00,
2013-03-07 19:05:00,56.8,50.8,29.62,SW,224,8.3,8.3,80,0.00,,,0.00,VWS V12.07,2013-03-07 18:05:00,
2013-03-07 19:15:00,56.8,51.2,29.62,SSW,199,3.1,8.3,81,0.00,,,0.00,VWS V12.07,2013-03-07 18:15:00,
2013-03-07 19:20:00,56.8,51.2,29.62,SSE,165,8.1,8.3,81,0.00,,,0.00,VWS V12.07,2013-03-07 18:20:00,
2013-03-07 19:25:00,56.8,51.6,29.62,South,180,11.0,11.0,82,0.00,,,0.00,VWS V12.07,2013-03-07 18:25:00,
2013-03-07 19:30:00,56.8,51.6,29.62,South,185,8.1,11.0,82,0.00,,,0.00,VWS V12.07,2013-03-07 18:30:00,
2013-03-07 19:35:00,56.8,51.6,29.62,South,180,8.1,11.4,82,0.00,,,0.00,VWS V12.07,2013-03-07 18:35:00,
2013-03-07 19:40:00,56.8,51.6,29.62,SSW,192,8.1,11.4,82,0.00,,,0.00,VWS V12.07,2013-03-07 18:40:00,
2013-03-07 19:45:00,56.8,51.6,29.62,SSE,161,5.4,11.4,82,0.00,,,0.00,VWS V12.07,2013-03-07 18:45:00,
2013-03-07 19:50:00,56.8,51.2,29.62,SSW,213,3.6,9.6,81,0.00,,,0.00,VWS V12.07,2013-03-07 18:50:00,
2013-03-07 19:55:00,56.8,51.2,29.62,WSW,238,6.3,9.6,81,0.00,,,0.00,VWS V12.07,2013-03-07 18:55:00,
2013-03-07 20:00:00,57.0,51.4,29.62,SSW,202,10.1,10.1,81,0.00,,,0.00,VWS V12.07,2013-03-07 19:00:00,
2013-03-07 20:05:00,57.0,51.0,29.62,SW,236,7.6,10.1,80,0.00,,,0.00,VWS V12.07,2013-03-07 19:05:00,
2013-03-07 20:10:00,57.2,51.2,29.62,SSW,210,8.7,11.0,80,0.00,,,0.00,VWS V12.07,2013-03-07 19:10:00,
2013-03-07 20:15:00,57.2,51.2,29.62,SSW,206,4.0,8.7,80,0.00,,,0.00,VWS V12.07,2013-03-07 19:15:00,
2013-03-07 20:20:00,57.2,50.8,29.62,SSE,162,8.1,11.4,79,0.00,,,0.00,VWS V12.07,2013-03-07 19:20:00,
2013-03-07 20:25:00,57.2,50.8,29.62,South,187,5.8,11.9,79,0.00,,,0.00,VWS V12.07,2013-03-07 19:25:00,
2013-03-07 20:30:00,57.4,50.6,29.59,NW,304,4.9,12.3,78,0.00,,,0.00,VWS V12.07,2013-03-07 19:30:00,
2013-03-07 20:35:00,57.4,50.6,29.59,SSW,196,3.6,12.3,78,0.00,,,0.00,VWS V12.07,2013-03-07 19:35:00,
2013-03-07 20:40:00,57.4,50.6,29.59,West,268,6.3,10.1,78,0.00,,,0.00,VWS V12.07,2013-03-07 19:40:00,
2013-03-07 20:45:00,57.4,50.6,29.59,South,189,5.4,10.1,78,0.00,,,0.00,VWS V12.07,2013-03-07 19:45:00,
2013-03-07 20:50:00,57.4,50.6,29.59,SSE,166,7.6,12.8,78,0.00,,,0.00,VWS V12.07,2013-03-07 19:50:00,
2013-03-07 20:55:00,57.4,51.0,29.59,SE,141,6.3,12.8,79,0.00,,,0.00,VWS V12.07,2013-03-07 19:55:00,
2013-03-07 21:05:00,57.4,51.0,29.59,SSW,196,10.1,12.8,79,0.00,,,0.00,VWS V12.07,2013-03-07 20:05:00,
2013-03-07 21:10:00,57.4,51.0,29.59,South,187,9.6,12.3,79,0.00,,,0.00,VWS V12.07,2013-03-07 20:10:00,
2013-03-07 21:15:00,57.4,51.0,29.59,South,173,7.6,12.3,79,0.00,,,0.00,VWS V12.07,2013-03-07 20:15:00,
2013-03-07 21:25:00,57.2,51.2,29.59,South,169,8.3,11.0,80,0.00,,,0.00,VWS V12.07,2013-03-07 20:25:00,
2013-03-07 21:34:00,57.2,51.6,29.59,SSE,168,12.8,17.4,81,0.00,,,0.00,VWS V12.07,2013-03-07 20:34:00,
2013-03-07 21:40:00,57.2,51.6,29.59,SSE,156,8.7,17.4,81,0.00,,,0.00,VWS V12.07,2013-03-07 20:40:00,
2013-03-07 21:49:00,57.2,51.6,29.59,SW,220,10.5,12.8,81,0.00,,,0.00,VWS V12.07,2013-03-07 20:49:00,
2013-03-07 21:54:00,57.2,51.6,29.59,SW,220,10.5,12.8,81,0.00,,,0.00,VWS V12.07,2013-03-07 20:54:00,
2013-03-07 21:59:00,57.2,51.6,29.59,SW,217,12.8,12.8,81,0.00,,,0.00,VWS V12.07,2013-03-07 20:59:00,
2013-03-07 22:04:00,57.2,51.6,29.59,SW,232,10.1,12.8,81,0.00,,,0.00,VWS V12.07,2013-03-07 21:04:00,
2013-03-07 22:09:00,57.2,51.2,29.59,SSE,160,4.5,10.1,80,0.00,,,0.00,VWS V12.07,2013-03-07 21:09:00,
2013-03-07 22:14:00,57.2,51.2,29.56,South,188,3.1,8.7,80,0.00,,,0.00,VWS V12.07,2013-03-07 21:14:00,
2013-03-07 22:19:00,57.2,51.2,29.56,SSW,197,5.4,8.7,80,0.00,,,0.00,VWS V12.07,2013-03-07 21:19:00,
2013-03-07 22:24:00,57.2,50.8,29.56,SSE,163,8.3,8.3,79,0.00,,,0.00,VWS V12.07,2013-03-07 21:24:00,
2013-03-07 22:29:00,57.2,50.8,29.56,SSW,211,5.8,8.7,79,0.00,,,0.00,VWS V12.07,2013-03-07 21:29:00,
2013-03-07 22:34:00,57.2,51.2,29.56,South,181,11.4,11.4,80,0.00,,,0.00,VWS V12.07,2013-03-07 21:34:00,
2013-03-07 22:39:00,57.2,51.2,29.56,South,181,8.1,11.4,80,0.00,,,0.00,VWS V12.07,2013-03-07 21:39:00,
2013-03-07 22:44:00,57.2,51.2,29.56,SSW,196,10.1,13.6,80,0.00,,,0.00,VWS V12.07,2013-03-07 21:44:00,
2013-03-07 22:49:00,57.2,50.8,29.56,SSW,206,8.7,13.6,79,0.00,,,0.00,VWS V12.07,2013-03-07 21:49:00,
2013-03-07 22:54:00,57.2,50.8,29.56,SSW,207,9.2,13.6,79,0.00,,,0.00,VWS V12.07,2013-03-07 21:54:00,
2013-03-07 22:59:00,57.2,50.5,29.56,South,183,4.9,11.0,78,0.00,,,0.00,VWS V12.07,2013-03-07 21:59:00,
2013-03-07 23:04:00,57.2,50.5,29.56,South,188,4.0,11.0,78,0.00,,,0.00,VWS V12.07,2013-03-07 22:04:00,
2013-03-07 23:10:00,57.2,50.5,29.56,SW,215,5.4,11.9,78,0.00,,,0.00,VWS V12.07,2013-03-07 22:10:00,
2013-03-07 23:19:00,57.4,50.2,29.56,SSW,204,8.1,13.6,77,0.00,,,0.00,VWS V12.07,2013-03-07 22:19:00,
2013-03-07 23:24:00,57.2,50.5,29.56,South,190,4.0,11.0,78,0.00,,,0.00,VWS V12.07,2013-03-07 22:24:00,
2013-03-07 23:29:00,57.2,50.8,29.56,SSW,198,6.3,15.4,79,0.00,,,0.00,VWS V12.07,2013-03-07 22:29:00,
2013-03-07 23:34:00,57.2,50.8,29.56,South,181,6.3,8.7,79,0.00,,,0.00,VWS V12.07,2013-03-07 22:34:00,
2013-03-07 23:39:00,57.2,50.5,29.56,SSW,213,6.3,11.0,78,0.00,,,0.00,VWS V12.07,2013-03-07 22:39:00,
2013-03-07 23:44:00,57.2,50.8,29.53,South,171,5.8,12.3,79,0.00,,,0.00,VWS V12.07,2013-03-07 22:44:00,
2013-03-07 23:49:00,57.0,51.0,29.53,SSE,158,8.7,13.2,80,0.00,,,0.00,VWS V12.07,2013-03-07 22:49:00,
2013-03-07 23:54:00,57.0,51.0,29.53,South,172,8.1,13.2,80,0.00,,,0.00,VWS V12.07,2013-03-07 22:54:00,
2013-03-07 23:59:00,57.0,51.0,29.53,SSW,204,13.2,13.6,80,0.00,,,0.00,VWS V12.07,2013-03-07 22:59:00,